�N����,����,�~����,�C��,���x,�C��,����,���ϕ���,�ő�u�ԕ���,�ő厞����,���˗�,�I�_���x,�n�����x,�ő啗���N��,DTYPE
"23/03/16","00:10",0.0,9.0,80.4,1020.8,300.0,1.6,1.8,308.5,0.00,5.9,11.7,"00:01:52",1
"23/03/16","00:20",0.0,9.1,80.8,1020.1,307.3,2.2,3.2,328.6,0.00,6.0,11.7,"00:18:00",1
"23/03/16","00:30",0.0,9.0,80.9,1020.4,294.4,1.8,3.1,317.5,0.00,5.9,11.5,"00:20:40",1
"23/03/16","00:40",0.0,9.0,81.1,1020.6,309.2,1.7,2.9,336.0,0.00,6.0,11.5,"00:38:40",1
"23/03/16","00:50",0.0,8.8,81.3,1020.6,312.9,2.2,3.1,314.0,0.00,5.8,11.6,"00:46:24",1
"23/03/16","01:00",0.0,8.4,81.8,1020.6,303.9,1.5,2.2,298.6,0.00,5.5,11.5,"00:59:52",1
"23/03/16","01:10",0.0,8.0,82.5,1020.6,312.3,2.1,2.9,321.7,0.00,5.2,11.4,"01:00:02",1
"23/03/16","01:20",0.0,7.5,83.2,1020.4,313.7,2.5,3.1,314.1,0.00,4.9,11.4,"01:14:48",1
"23/03/16","01:30",0.0,7.3,84.6,1020.6,324.9,2.8,3.2,316.4,0.00,4.9,11.2,"01:21:04",1
"23/03/16","01:40",0.0,7.4,85.8,1020.8,297.9,2.7,3.2,314.0,0.00,5.2,11.3,"01:30:24",1
"23/03/16","01:50",0.0,7.6,86.4,1020.6,288.4,2.3,3.2,319.0,0.00,5.5,11.2,"01:46:32",1
"23/03/16","02:00",0.0,7.8,86.7,1020.4,287.9,2.2,3.1,313.3,0.00,5.8,11.1,"01:59:52",1
"23/03/16","02:10",0.0,7.9,86.7,1021.1,291.7,2.6,3.3,300.3,0.00,5.9,11.3,"02:07:36",1
"23/03/16","02:20",0.0,8.1,86.6,1020.6,300.0,2.6,3.6,318.4,0.00,6.0,11.1,"02:18:08",1
"23/03/16","02:30",0.0,8.0,86.2,1020.4,319.3,2.7,3.6,318.0,0.00,5.9,11.2,"02:21:20",1
"23/03/16","02:40",0.0,7.4,86.4,1020.4,302.6,1.8,3.2,322.3,0.00,5.3,11.1,"02:32:00",1
"23/03/16","02:50",0.0,7.2,86.5,1020.1,291.7,1.2,2.4,312.2,0.00,5.1,10.9,"02:49:52",1
"23/03/16","03:00",0.0,6.8,87.1,1020.1,315.2,2.8,3.2,311.6,0.00,4.8,10.8,"02:53:28",1
"23/03/16","03:10",0.0,6.9,88.0,1020.4,323.7,2.5,2.9,331.3,0.00,5.1,11.0,"03:04:40",1
"23/03/16","03:20",0.0,6.9,88.7,1019.9,308.9,2.3,2.8,318.9,0.00,5.2,10.9,"03:18:48",1
"23/03/16","03:30",0.0,6.7,89.1,1019.9,306.4,2.0,2.6,319.3,0.00,5.1,11.1,"03:20:16",1
"23/03/16","03:40",0.0,6.9,89.9,1019.9,317.1,2.0,3.2,324.6,0.00,5.4,11.0,"03:38:16",1
"23/03/16","03:50",0.0,6.8,90.1,1019.9,312.9,2.2,2.9,323.7,0.00,5.3,10.9,"03:42:40",1
"23/03/16","04:00",0.0,6.6,90.7,1020.1,307.8,1.3,2.0,319.4,0.00,5.2,10.7,"03:54:56",1
"23/03/16","04:10",0.0,6.3,91.0,1019.9,306.9,2.2,2.9,319.3,0.00,5.0,11.0,"04:06:06",1
"23/03/16","04:20",0.0,6.3,91.3,1019.9,305.5,2.0,2.5,327.8,0.00,5.0,10.8,"04:10:48",1
"23/03/16","04:30",0.0,6.7,91.9,1020.1,299.6,2.2,2.6,313.4,0.00,5.5,10.7,"04:26:08",1
"23/03/16","04:40",0.0,7.0,92.0,1020.1,315.2,2.1,2.7,320.5,0.00,5.8,10.6,"04:37:12",1
"23/03/16","04:50",0.0,6.6,92.1,1019.9,309.4,1.8,3.1,323.1,0.00,5.5,10.6,"04:41:12",1
"23/03/16","05:00",0.0,6.5,92.4,1020.4,303.2,2.1,3.1,318.5,0.00,5.4,10.5,"04:59:10",1
"23/03/16","05:10",0.0,6.6,92.8,1020.1,304.0,2.2,2.9,323.4,0.00,5.6,10.6,"05:00:16",1
"23/03/16","05:20",0.0,6.9,92.8,1020.4,310.9,2.5,3.3,314.6,0.00,5.9,10.4,"05:11:04",1
"23/03/16","05:30",0.0,7.4,92.9,1020.6,299.0,3.0,4.0,313.8,0.00,6.4,10.6,"05:27:04",1
"23/03/16","05:40",0.0,7.7,92.7,1020.8,293.5,2.8,4.1,315.0,0.00,6.6,10.3,"05:38:00",1
"23/03/16","05:50",0.0,7.7,92.4,1020.6,305.7,2.1,3.3,323.0,0.00,6.6,10.4,"05:46:00",1
"23/03/16","06:00",0.0,6.7,92.6,1021.1,316.1,3.0,3.4,321.4,0.00,5.6,10.4,"05:50:32",1
"23/03/16","06:10",0.0,6.8,92.8,1020.4,309.8,2.2,3.2,323.8,0.00,5.8,10.3,"06:00:16",1
"23/03/16","06:20",0.0,6.6,92.8,1020.6,301.6,1.1,2.1,302.0,0.00,5.6,10.3,"06:17:26",1
"23/03/16","06:30",0.0,6.1,92.9,1020.4,312.9,2.1,2.6,318.4,0.00,5.1,10.2,"06:20:40",1
"23/03/16","06:40",0.0,6.0,93.3,1020.6,330.9,2.1,3.9,339.6,0.00,5.0,10.3,"06:35:38",1
"23/03/16","06:50",0.0,6.0,93.6,1020.6,305.0,2.0,2.6,321.6,0.00,5.1,10.3,"06:45:42",1
"23/03/16","07:00",0.0,6.5,93.9,1020.6,280.9,2.5,3.5,305.8,0.00,5.6,10.2,"06:58:26",1
"23/03/16","07:10",0.0,6.7,94.0,1020.1,294.6,2.6,3.4,323.8,0.00,5.8,10.2,"07:00:56",1
"23/03/16","07:20",0.0,7.0,94.1,1020.6,302.4,2.8,4.0,313.5,0.00,6.2,10.0,"07:17:20",1
"23/03/16","07:30",0.0,7.4,94.1,1020.4,289.2,1.7,3.2,270.1,0.00,6.6,10.0,"07:20:08",1
"23/03/16","07:40",0.0,7.7,93.9,1020.8,327.4,0.6,1.4,307.3,0.01,6.8,10.2,"07:31:12",1
"23/03/16","07:50",0.0,8.1,94.0,1020.8,232.9,0.5,0.9,118.3,0.02,7.2,10.2,"07:41:20",1
"23/03/16","08:00",0.0,8.8,93.6,1021.1,313.6,1.1,2.1,320.4,0.04,7.9,9.9,"07:54:16",1
"23/03/16","08:10",0.0,9.4,93.3,1020.8,316.8,1.0,1.7,313.1,0.07,8.4,10.1,"08:04:00",1
"23/03/16","08:20",0.0,10.6,92.7,1021.1,290.8,0.6,1.1,314.3,0.09,9.5,10.1,"08:18:40",1
"23/03/16","08:30",0.0,11.0,91.1,1021.8,282.9,0.2,0.9,304.8,0.12,9.6,10.0,"08:20:08",1
"23/03/16","08:40",0.0,11.4,89.1,1021.5,290.8,1.0,2.0,313.7,0.14,9.7,10.0,"08:32:54",1
"23/03/16","08:50",0.0,12.2,87.0,1022.0,266.2,0.3,1.0,252.0,0.17,10.1,10.1,"08:41:36",1
"23/03/16","09:00",0.0,13.2,83.7,1022.0,292.2,0.5,1.1,325.3,0.20,10.5,10.1,"08:56:40",1
"23/03/16","09:10",0.0,13.8,78.4,1022.3,61.5,0.5,1.2,114.6,0.23,10.2,10.2,"09:04:56",1
"23/03/16","09:20",0.0,14.3,74.7,1022.0,126.8,0.3,1.1,134.6,0.26,9.9,10.2,"09:10:24",1
"23/03/16","09:30",0.0,14.7,70.3,1021.8,136.2,0.3,1.0,109.6,0.28,9.4,10.2,"09:21:36",1
"23/03/16","09:40",0.0,15.7,67.6,1021.8,267.2,0.5,1.0,197.1,0.31,9.8,10.2,"09:30:56",1
"23/03/16","09:50",0.0,16.2,65.3,1021.3,258.2,0.3,1.1,239.3,0.33,9.7,10.2,"09:48:08",1
"23/03/16","10:00",0.0,16.4,60.8,1021.1,169.3,0.8,1.9,118.3,0.36,8.9,10.2,"09:55:44",1
"23/03/16","10:10",0.0,16.8,58.3,1020.6,93.9,1.1,2.6,114.0,0.38,8.6,10.5,"10:08:32",1
"23/03/16","10:20",0.0,17.1,56.3,1020.1,162.2,0.8,1.8,146.3,0.40,8.4,10.6,"10:10:56",1
"23/03/16","10:30",0.0,17.4,55.3,1020.4,227.6,1.2,3.2,144.7,0.42,8.4,10.7,"10:29:44",1
"23/03/16","10:40",0.0,18.1,56.3,1019.9,189.6,0.8,1.9,158.2,0.44,9.3,10.7,"10:30:08",1
"23/03/16","10:50",0.0,18.1,53.6,1019.9,155.3,1.3,3.1,158.4,0.46,8.6,10.7,"10:47:52",1
"23/03/16","11:00",0.0,18.3,53.1,1019.7,150.9,1.3,3.5,137.8,0.48,8.6,10.9,"10:56:08",1
"23/03/16","11:10",0.0,18.6,53.0,1019.4,139.6,1.5,4.0,126.1,0.49,8.9,10.9,"11:05:04",1
"23/03/16","11:20",0.0,18.8,52.5,1019.4,164.0,1.6,3.5,129.2,0.50,8.9,11.1,"11:18:16",1
"23/03/16","11:30",0.0,19.0,53.2,1019.0,195.3,1.6,3.3,126.2,0.52,9.3,11.1,"11:21:28",1
"23/03/16","11:40",0.0,19.3,51.7,1019.0,172.3,1.7,3.4,143.8,0.52,9.2,11.1,"11:30:08",1
"23/03/16","11:50",0.0,19.5,52.7,1018.7,157.3,2.3,5.2,129.6,0.52,9.6,11.3,"11:40:24",1
"23/03/16","12:00",0.0,19.1,54.1,1019.0,126.4,2.3,4.7,110.3,0.40,9.7,11.3,"11:55:28",1
"23/03/16","12:10",0.0,19.8,54.0,1018.7,116.8,1.8,4.4,122.5,0.55,10.3,11.4,"12:08:56",1
"23/03/16","12:20",0.0,20.6,51.1,1018.0,180.4,1.7,5.2,130.8,0.63,10.2,11.5,"12:10:08",1
"23/03/16","12:30",0.0,21.1,50.9,1018.0,274.8,1.1,3.1,164.0,0.55,10.6,11.6,"12:27:04",1
"23/03/16","12:40",0.0,20.8,50.5,1017.8,152.6,1.8,3.7,123.3,0.53,10.2,12.0,"12:33:20",1
"23/03/16","12:50",0.0,22.1,51.5,1017.1,214.3,0.8,2.1,200.9,0.61,11.7,11.7,"12:40:02",1
"23/03/16","13:00",0.0,21.7,49.5,1016.8,143.4,1.5,3.2,108.1,0.42,10.7,12.0,"12:55:12",1
"23/03/16","13:10",0.0,20.9,50.6,1017.1,247.3,1.8,4.2,351.3,0.31,10.3,12.1,"13:06:32",1
"23/03/16","13:20",0.0,20.9,53.0,1016.8,243.2,2.2,5.0,257.9,0.26,11.0,12.3,"13:10:02",1
"23/03/16","13:30",0.0,20.5,53.0,1016.8,228.8,2.6,5.4,258.3,0.28,10.6,12.2,"13:20:32",1
"23/03/16","13:40",0.0,20.9,53.5,1016.8,213.8,3.9,6.6,230.6,0.44,11.2,12.4,"13:34:48",1
"23/03/16","13:50",0.0,22.2,50.7,1016.6,228.5,1.8,4.5,232.4,0.58,11.5,12.5,"13:40:48",1
"23/03/16","14:00",0.0,21.7,50.2,1016.1,228.8,3.1,8.6,237.5,0.51,10.9,12.7,"13:51:52",1
"23/03/16","14:10",0.0,20.9,52.3,1016.6,265.9,2.6,5.0,247.3,0.28,10.8,12.8,"14:00:24",1
"23/03/16","14:20",0.0,20.8,52.9,1016.4,193.8,2.6,4.3,250.0,0.24,10.9,12.7,"14:10:40",1
"23/03/16","14:30",0.0,21.5,52.6,1015.6,262.7,1.1,2.7,248.9,0.33,11.5,12.9,"14:22:56",1
"23/03/16","14:40",0.0,22.6,48.7,1015.6,270.1,2.2,5.1,240.6,0.59,11.3,13.0,"14:39:28",1
"23/03/16","14:50",0.0,21.9,47.1,1015.6,237.3,3.1,7.2,233.3,0.42,10.2,13.2,"14:40:56",1
"23/03/16","15:00",0.0,21.5,50.5,1015.6,254.4,2.8,5.6,232.7,0.34,10.8,13.3,"14:52:48",1
"23/03/16","15:10",0.0,21.5,50.2,1015.4,245.7,2.1,5.1,245.9,0.30,10.7,13.1,"15:00:08",1
"23/03/16","15:20",0.0,20.9,51.7,1015.4,286.6,2.5,5.7,264.5,0.16,10.6,13.2,"15:15:28",1
"23/03/16","15:30",0.0,20.5,52.7,1015.2,323.4,3.1,5.6,319.7,0.12,10.6,13.2,"15:21:04",1
"23/03/16","15:40",0.0,20.3,53.8,1015.6,329.1,3.1,5.4,330.3,0.11,10.7,13.3,"15:33:20",1
"23/03/16","15:50",0.0,20.6,53.9,1015.4,307.4,2.7,4.7,333.2,0.13,11.0,13.4,"15:40:24",1
"23/03/16","16:00",0.0,20.6,54.0,1015.6,312.1,2.5,4.5,321.4,0.14,11.0,13.6,"15:54:56",1
"23/03/16","16:10",0.0,20.9,54.6,1015.6,322.9,3.4,5.4,325.7,0.23,11.5,13.7,"16:05:12",1
"23/03/16","16:20",0.0,21.5,52.4,1015.6,318.8,3.1,5.7,336.5,0.33,11.4,13.6,"16:15:20",1
"23/03/16","16:30",0.0,21.2,52.6,1015.4,322.6,3.2,5.0,343.2,0.24,11.2,13.5,"16:27:44",1
"23/03/16","16:40",0.0,20.6,54.1,1015.6,296.9,2.5,4.5,258.7,0.13,11.0,13.7,"16:33:04",1
"23/03/16","16:50",0.0,20.6,55.0,1015.6,309.0,2.7,4.5,329.8,0.12,11.3,13.7,"16:43:44",1
"23/03/16","17:00",0.0,20.2,55.3,1015.6,296.5,2.2,3.9,338.6,0.07,11.0,13.5,"16:52:32",1
"23/03/16","17:10",0.0,20.3,56.2,1015.6,311.0,2.6,6.2,345.2,0.10,11.3,13.7,"17:00:08",1
"23/03/16","17:20",0.0,20.2,56.6,1015.6,318.3,2.5,4.9,340.5,0.07,11.4,13.8,"17:16:48",1
"23/03/16","17:30",0.0,20.0,56.6,1016.1,322.0,2.5,4.4,332.7,0.05,11.2,13.8,"17:29:28",1
"23/03/16","17:40",0.0,19.5,58.9,1016.4,348.1,2.0,4.0,348.0,0.02,11.3,13.9,"17:30:16",1
"23/03/16","17:50",0.0,19.1,60.9,1016.1,353.0,1.6,2.9,1.9,0.00,11.4,13.7,"17:41:44",1
"23/03/16","18:00",0.0,18.8,63.1,1016.4,340.9,1.8,2.6,351.9,0.00,11.7,13.7,"17:56:00",1
"23/03/16","18:10",0.0,18.4,64.4,1016.8,332.3,1.8,2.7,340.2,0.00,11.6,13.6,"18:01:20",1
"23/03/16","18:20",0.0,18.3,65.6,1017.1,301.5,2.0,3.6,273.9,0.00,11.8,13.7,"18:19:44",1
"23/03/16","18:30",0.2,17.8,68.2,1016.8,283.3,1.3,2.8,248.8,0.00,11.9,13.7,"18:20:08",1
"23/03/16","18:40",0.0,17.5,71.3,1016.8,339.6,1.5,2.5,343.6,0.00,12.3,13.7,"18:35:46",1
"23/03/16","18:50",0.0,16.6,76.0,1016.8,341.1,1.5,2.5,346.8,0.00,12.4,13.8,"18:45:20",1
"23/03/16","19:00",0.0,15.9,81.0,1017.3,339.6,1.6,2.1,342.0,0.00,12.7,13.8,"18:52:40",1
"23/03/16","19:10",0.0,15.4,83.6,1017.1,332.3,1.3,1.9,339.7,0.00,12.7,13.6,"19:03:20",1
"23/03/16","19:20",0.0,15.1,85.4,1017.1,327.5,1.3,1.6,327.3,0.00,12.7,13.5,"19:10:26",1
"23/03/16","19:30",0.0,15.0,86.7,1017.8,307.2,2.0,2.7,338.5,0.00,12.8,13.6,"19:28:22",1
"23/03/16","19:40",0.0,15.0,87.6,1017.8,320.9,2.1,2.8,310.0,0.00,13.0,13.7,"19:31:10",1
"23/03/16","19:50",0.0,14.9,88.3,1017.3,307.5,1.5,2.0,330.4,0.00,13.0,13.9,"19:49:54",1
"23/03/16","20:00",0.0,14.8,88.7,1017.8,299.3,1.5,2.1,318.9,0.00,13.0,13.4,"19:50:46",1
"23/03/16","20:10",0.0,14.7,89.1,1018.0,295.6,1.2,1.7,298.5,0.00,13.0,13.6,"20:00:16",1
"23/03/16","20:20",0.0,14.6,89.3,1018.5,313.1,1.7,2.7,344.8,0.00,12.9,13.6,"20:13:12",1
"23/03/16","20:30",0.0,14.4,89.1,1018.5,328.8,1.6,2.9,341.9,0.00,12.7,13.5,"20:27:28",1
"23/03/16","20:40",0.0,14.6,88.8,1018.5,330.9,1.2,1.9,341.2,0.00,12.8,13.7,"20:31:46",1
"23/03/16","20:50",0.0,14.4,88.5,1018.5,293.0,1.5,2.2,260.8,0.00,12.6,13.6,"20:45:04",1
"23/03/16","21:00",0.0,14.3,87.9,1018.5,304.3,2.0,3.1,313.0,0.00,12.4,13.4,"20:57:10",1
"23/03/16","21:10",0.0,14.3,87.1,1018.7,324.5,2.7,3.9,323.0,0.00,12.2,13.5,"21:07:52",1
"23/03/16","21:20",0.0,14.3,86.2,1019.0,330.9,2.6,3.7,319.0,0.00,12.1,13.5,"21:13:38",1
"23/03/16","21:30",0.0,14.2,85.8,1018.5,328.8,2.3,3.3,338.4,0.00,11.9,13.3,"21:23:56",1
"23/03/16","21:40",0.0,14.1,85.6,1018.7,334.8,2.3,4.1,330.8,0.00,11.8,13.5,"21:34:04",1
"23/03/16","21:50",0.0,14.2,85.2,1018.7,332.5,2.6,4.0,317.0,0.00,11.8,13.4,"21:48:20",1
"23/03/16","22:00",0.0,14.2,84.9,1019.0,299.3,2.3,5.1,338.9,0.00,11.7,13.3,"21:51:44",1
"23/03/16","22:10",0.0,14.0,84.7,1019.0,318.0,2.8,4.2,327.9,0.00,11.5,13.3,"22:09:00",1
"23/03/16","22:20",0.0,13.9,84.4,1019.2,331.0,3.0,4.4,330.1,0.00,11.4,13.3,"22:13:28",1
"23/03/16","22:30",0.0,13.9,84.3,1019.2,323.4,2.8,4.4,326.4,0.00,11.3,13.2,"22:21:40",1
"23/03/16","22:40",0.0,13.6,84.1,1019.2,318.4,2.8,4.0,326.0,0.00,11.0,13.3,"22:36:46",1
"23/03/16","22:50",0.0,13.4,84.3,1019.0,323.1,2.6,4.0,322.8,0.00,10.8,13.3,"22:44:38",1
"23/03/16","23:00",0.0,13.3,84.3,1019.2,319.7,3.6,5.0,317.0,0.00,10.7,13.2,"22:55:50",1
"23/03/16","23:10",0.0,13.2,84.3,1019.2,310.2,3.9,6.0,309.2,0.00,10.7,13.2,"23:08:24",1
"23/03/16","23:20",0.0,13.0,84.5,1019.2,312.2,3.2,5.0,324.0,0.00,10.5,13.2,"23:19:20",1
"23/03/16","23:30",0.0,13.0,84.7,1019.4,318.9,3.4,4.8,321.4,0.00,10.5,13.1,"23:22:14",1
"23/03/16","23:40",0.0,12.9,84.8,1019.2,317.4,3.0,4.3,316.5,0.00,10.4,12.8,"23:36:58",1
"23/03/16","23:50",0.0,12.8,84.9,1018.7,325.9,2.7,4.0,344.9,0.00,10.4,13.1,"23:47:48",1
"23/03/16","24:00",0.0,12.8,85.0,1018.7,322.9,2.8,4.1,321.5,0.00,10.4,13.2,"23:50:52",1
